Location: ČR
(50.0000°N, 15.0000°E)
Time: 09:01:48
(UTC+00:00)

Vanguard 3 - All Passes

Search period start: 21 October 2021 00:00
Search period end: 31 October 2021 00:00
Orbit: 510 x 3259 km, 33.3° (Epoch: 20 October)

Date Brightness Start Highest point End Pass type
(mag) Time Alt. Az. Time Alt. Az. Time Alt. Az.
21 Oct - 15:14:18 10° SSE 15:15:44 11° SE 15:17:16 10° SE daylight
21 Oct - 17:19:16 10° SW 17:25:55 28° SSE 17:36:09 10° ESE visible
21 Oct - 19:28:58 10° WSW 19:37:54 34° S 19:51:36 10° SE visible
21 Oct - 21:40:57 10° WSW 21:50:58 25° SSW 22:04:12 10° SSE visible
22 Oct - 00:01:42 10° SW 00:03:51 10° SW 00:06:04 10° SW night (unlit)
22 Oct - 16:07:16 10° SSW 16:12:06 19° SSE 16:18:50 10° ESE daylight
22 Oct - 18:15:42 10° SW 18:23:09 32° S 18:34:53 10° ESE visible
22 Oct - 20:26:27 10° WSW 20:35:41 29° SSW 20:49:00 10° SE visible
22 Oct - 22:40:47 10° WSW 22:48:42 16° SSW 22:58:05 10° S visible
23 Oct - 14:58:15 10° SE 14:58:45 10° SE 14:59:16 10° SE daylight
23 Oct - 17:02:57 10° SW 17:08:55 26° SSE 17:18:00 10° ESE visible
23 Oct - 19:12:41 10° WSW 19:20:42 31° S 19:32:58 10° SE visible
23 Oct - 21:24:50 10° WSW 21:33:29 22° SSW 21:44:51 10° SSE visible
24 Oct - 15:50:56 10° SSW 15:55:12 18° SSE 16:01:00 10° ESE daylight
24 Oct - 17:59:28 10° SW 18:06:08 29° S 18:16:30 10° ESE visible
24 Oct - 20:10:17 10° WSW 20:18:24 25° SSW 20:30:00 10° SSE visible
24 Oct - 22:25:53 10° SW 22:31:11 13° SSW 22:37:13 10° SSW visible
25 Oct - 16:46:44 10° SW 16:52:02 24° SSE 16:59:55 10° ESE visible
25 Oct - 18:56:32 10° WSW 19:03:37 27° S 19:14:16 10° SE visible
25 Oct - 21:09:06 10° WSW 21:16:08 18° SSW 21:25:09 10° S visible
26 Oct - 15:34:41 10° SSW 15:38:23 17° SSE 15:43:15 10° ESE daylight
26 Oct - 17:43:20 10° SW 17:49:13 26° S 17:58:08 10° SE visible
26 Oct - 19:54:21 10° WSW 20:01:15 21° SSW 20:10:49 10° SSE visible
27 Oct - 16:30:36 10° SW 16:35:14 22° SSE 16:41:54 10° SE visible
27 Oct - 18:40:32 10° SW 18:46:39 23° S 18:55:31 10° SE visible
27 Oct - 20:54:01 10° SW 20:58:56 13° SSW 21:04:48 10° S visible
28 Oct - 15:18:31 10° SSW 15:21:38 15° SSE 15:25:34 10° SE daylight
28 Oct - 17:27:18 10° SW 17:32:24 22° S 17:39:47 10° SE visible
28 Oct - 19:38:44 10° SW 19:44:13 17° SSW 19:51:24 10° SSE visible
29 Oct - 16:14:33 10° SW 16:18:31 19° S 16:23:56 10° SE visible
29 Oct - 18:24:44 10° SW 18:29:47 18° S 18:36:41 10° SSE visible
30 Oct - 15:02:28 10° SSW 15:04:57 14° SSE 15:07:55 10° SE daylight
30 Oct - 17:11:26 10° SW 17:15:39 18° S 17:21:25 10° SE visible
30 Oct - 19:23:49 10° SW 19:27:17 12° SSW 19:31:23 10° S visible
